Regional Weather Roundup
Issued by NWS Wakefield, VA

Home | Current Version | Previous Version | Graphics & Text | Print | Product List | Glossary On
Versions: 1 2 3 4 5 6 7 8 9 10 11 12 13 14 15 16 17 18 19 20 21 22 23 24 25 26 27 28 29 30 31 32 33 34 35 36 37 38 39 40 41 42 43 44 45 46 47 48 49 50
000
ASUS41 KAKQ 251210
RWRAKQ

REGIONAL WEATHER ROUNDUP
NATIONAL WEATHER SERVICE WAKEFIELD VA
700 AM EST SUN JAN 25 2015

Note: "fair" indicates few or no clouds below 12,000 feet with no
significant weather and/or obstructions to visibility. * = Denotes
station may not report precipitation (e.g., rain,snow,etc.),
thunder or fog.

VAZ042-051-052>054-056-251300-
NORTHERN VIRGINIA

CITY           SKY/WX    TMP DP  RH WIND       PRES   REMARKS
WASH NATIONAL  CLOUDY    40  27  59 VRB6      29.85R
DULLES         CLOUDY    37  27  67 SW6       29.82R
FORT BELVOIR   CLOUDY    38  27  62 W5        29.85R
QUANTICO       CLOUDY    37  26  64 W6        29.86R
FREDERICKSBRG* CLOUDY    35  29  79 S6        29.84R
STAFFORD*      CLOUDY    35  26  69 CALM      29.88R
WARRENTON      CLOUDY    36  32  85 CALM      29.82S
CULPEPER*      CLOUDY    36  28  75 S3        29.82S
MANASSAS*      CLOUDY    37  28  70 CALM      29.84R
LEESBURG*      CLOUDY    37  32  81 S5        29.83R
WINCHESTER     CLOUDY    41  27  56 SW3       29.78S
FRONT ROYAL*   CLOUDY    37  28  70 SW5       29.78S
LURAY*         CLOUDY    36  30  80 S3        29.80R
$$

VAZ048-049-060>072-079>083-251300-
CENTRAL AND SOUTH CENTRAL VIRGINIA

CITY           SKY/WX    TMP DP  RH WIND       PRES   REMARKS
RICHMOND       MOCLDY    35  28  75 W6        29.86R
CHESTERFIELD*  FAIR      34  19  55 CALM      29.87R
PETERSBURG*    CLOUDY    33  29  85 CALM      29.88R
HANOVER        MOCLDY    29  27  92 CALM      29.87R
TAPPAHANNOCK*  MOCLDY    34  25  70 SW6       29.87R
QUINTON*       FAIR      31  27  87 CALM      29.87R
CHARLOTTSVILLE PTCLDY    32  25  75 S8        29.82R
GORDONSVILLE*  FAIR      28  26  92 CALM      29.83R
ORANGE*        MOCLDY    32  28  86 S3        29.84F
LOUISA*        PTCLDY    32  27  80 CALM      29.81F
BUMPASS*       FAIR      30  27  87 CALM      29.83F
FARMVILLE*     CLOUDY    33  30  90 CALM      29.85S
CREWE*         FAIR      34  28  80 W3        29.85F
FORT PICKETT*  FAIR      33  28  84 S6        29.85F
CHASE CITY*    FAIR      33  32  94 CALM      29.88R
CLARKSVILLE*   FAIR      32  30  93 CALM      29.88R
SOUTH HILL*    CLOUDY    33  27  80 CALM      29.93S
LAWRENCEVILLE* FAIR      31  28  88 CALM      29.87S
EMPORIA*       MOCLDY    32  28  86 CALM      29.91R
$$

VAZ088>098-251300-
SOUTHEAST VIRGINIA

CITY           SKY/WX    TMP DP  RH WIND       PRES   REMARKS
NORFOLK        MOCLDY    36  28  73 W5        29.88R
VIRGINIA BEACH MOCLDY    35  28  75 SW7       29.88R
NORFOLK NAVAL  MOCLDY    40  29  64 W6        29.90R
WEST POINT*    MOCLDY    34  29  80 W3        29.89R
SALUDA*        FAIR      34  27  75 W7        29.86R
NEWPORT NEWS   CLOUDY    38  29  70 W8        29.89R
LANGLEY AFB    CLOUDY    34  28  79 W9        29.89R
FORT EUSTIS    CLOUDY    36  29  76 VRB6      29.87R
WILLIAMSBURG*    N/A    N/A N/A N/A MISG      29.88R
HR EXEC AP*    FAIR      27  25  93 CALM      29.91R
FRANKLIN*      MOCLDY    33  28  82 CALM      29.91R
WAKEFIELD      CLOUDY    34  27  75 CALM      29.89R
$$

VAZ020-022-025-037-045-251300-
WEST CENTRAL AND SOUTHWEST VIRGINIA

CITY           SKY/WX    TMP DP  RH WIND       PRES   REMARKS
STAUNTON*      CLOUDY    37  27  67 S6        29.82R
WAYNESBORO*    CLOUDY    33  26  75 S3        29.80R
HOT SPRINGS VA CLOUDY    28  28 100 W9        29.70R FOG
LYNCHBURG      FAIR      34  26  72 SW3       29.87R
DANVILLE       CLOUDY    31  25  78 SW3       29.89R
SOUTH BOSTON*  FAIR      33  27  79 CALM      29.88R
MARTINSVILLE   PTCLDY    27  27 100 CALM      29.89S
ROANOKE        MOCLDY    37  28  70 CALM      29.87R
BLACKSBURG     CLOUDY    32  28  84 W5        29.87R
DUBLIN*        CLEAR     31  29  93 W7        29.86R
MARION*        CLOUDY    32  28  84 W8        29.87R
HILLSVILLE*    CLEAR     30  27  89 W5        29.83R
RICHLANDS*     FAIR      31  26  80 SW6       29.82R
WISE*          CLEAR     30  28  93 SW5       29.82S
ABINGDON*      CLEAR     29  26  89 CALM      29.88R
$$

MDZ021>025-VAZ099-100-251300-
SOUTHERN MARYLAND AND THE DELMARVA PENINSULA

CITY           SKY/WX    TMP DP  RH WIND       PRES   REMARKS
PATUXENT RIVER MOCLDY    35  27  72 SW9       29.85R
BAY BRIDGE APT   N/A     37  28  70 SW8       29.83R
LEONARDTOWN    CLOUDY    34  28  80 SW3       29.86R
DOVER          CLOUDY    36  30  78 W9        29.80R
GEORGETOWN     PTCLDY    36  27  69 W6        29.81R
EASTON         CLOUDY    37  32  81 W5        29.86R
CAMBRIDGE      CLOUDY    37  30  75 W3        29.83R
SALISBURY      CLOUDY    37  28  70 W6        29.83R
OCEAN CITY     CLEAR     34  28  79 W8        29.82R
WALLOPS ISLAND PTCLDY    36  29  75 NW7       29.85R
ACCOMACK*      MOCLDY    36  30  80 W6        29.85R
$$

NCZ012>017-030>032-251300-
NORTH CENTRAL AND EASTERN NORTH CAROLINA

CITY           SKY/WX    TMP DP  RH WIND       PRES   REMARKS
ROANOKE RAPIDS FAIR      30  28  93 S3        29.90S
RALEIGH        PTCLDY    30  25  81 CALM      29.91R
ELIZABETH CITY CLEAR     34  28  79 W7        29.90R
AHOSKIE*       PTCLDY    29  26  89 CALM      29.92R
EDENTON*       CLEAR     37  30  78 W6        29.92R
CURRITUCK*     CLEAR     34  29  82 W5        29.90R
KILL DEVIL HLS CLEAR     39  32  75 W5        29.89R
MANTEO         CLEAR     39  32  75 W6        29.91R
CAPE HATTERAS  CLEAR     42  32  67 NW12G23   29.91R
TARBORO*       FAIR      30  28  92 CALM      29.93R
GOLDSBORO      CLEAR     30  30  98 S1        29.91S
WASHINGTON     CLEAR     31  29  91 CALM      29.93R
GREENVILLE     CLEAR     34  30  86 CALM      29.93F
NEW BERN       CLEAR     37  29  72 CALM      29.93R
WILMINGTON     CLEAR     35  34  96 CALM      29.95R
$$

VAZ048-251300-
ELSEWHERE

CITY           SKY/WX    TMP DP  RH WIND       PRES   REMARKS
HARRISBURG PA  CLOUDY    38  28  67 W12       29.74R
BALTIMORE      CLOUDY    38  28  67 W8        29.80R
ANNAPOLIS      CLOUDY    38  27  64 SW5       29.82R
ANDREWS AFB    CLOUDY    34  27  74 SW6       29.83R
PHILADELPHIA   CLOUDY    36  28  73 SW16      29.75R
HENDERSON NC   CLEAR     32  27  81 SW5       29.89R
GREENSBORO     PTCLDY    27  24  89 S7        29.88R
ROCKY MOUNT    CLEAR     28  26  92 S3        29.91R
$$

VAZ100-251300-
MARINE

STATION/POSITION TIME  TEMP    WIND        PRES    WAVE   SWELL
                       AIR SEA DIR/SP/G            HT/PER HT/PER
                 (UTC) (F)     (DEG/KT/KT) (MB)    (FT/S) (FT/S)
BRANDYWINE LGT   1200   37 37  260/ 18/ 20 1008.6R
CAPE MAY NJ      1200   37 37  270/ 15/ 18 1008.2R
LEWES DE         1200   37 38  270/ 13/ 19 1008.9R
15NM E FENWICK I 1200   39 42              1008.3R   4/10
OCEAN-CITY-INLET 1200   36 39  300/  9/ 11 1009.4R
WACHAPREAGUE VA  1200   37 40  280/  3/  5 1010.8R
THOMAS POINT MD  1200   37 37  230/ 10/ 11 1011.4R
GOOSES REEF MD   1200   36     VRB  8/ 12  1009.1R
COVE POINT MD    1200   36     270/  9/ 11 1010.1R
SOLOMONS ISLAND  1200      38                N/A
BISHOPS HEAD MD  1200   38 36  240/ 11/ 12 1009.8R
PINEY POINT MD   1200          270/ 11/ 12   N/A
POTOMAC MD       1200   37     260/ 12/ 14 1009.4R
CAMBRIDGE MD     1200   38 36  230/  6/  8 1010.0R
LEWISETTA VA     1200   35 37  250/ 10/ 12 1010.7R
RAPPAHANNOCK LGT 1200          280/ 12/ 14 1011.3R
STINGRAY PT      1200   38     280/ 10/ 12 1011.7R
YORK RVR RNG VA  1200   38     290/ 10/ 12 1010.7R
JAMESTOWN VA     1200   35     320/ 10/ 12   N/A
DOMINION TERM VA 1200   38     310/  9/ 12 1011.7R
KIPTOPEKE VA     1200      46  310/ 14/ 17   N/A
CHES BAY BRIDGE  1200   39 41  260/ 14/ 16 1011.2R
CAPE HENRY VA    1200   37     250/  6/  9 1010.5R
CHESAPEAKE LGHT  1100   40     310/ 17/ 19 1011.0R
WILLOUBY STN VA  1200   38     280/ 11/ 12 1012.1R
S CRANEY ISL VA  1200          250/  5/  7 1011.8R
CAPE HENRY BUOY  1200      45                N/A     4/10   2/11
1ST LANDING BUOY 1200   39     280/ 16/ 17 1011.1R
CAPE CHARLES BUO 1200      43                N/A     3/11   2/11
OFFSHORE WE BUOY 1200      47                N/A     5/10   3/10
64NM E OF VA BCH 1200   44 52  320/ 17/ 19 1010.6R   6/ 6   3/11
DUCK PIER NC     1200   39 43  300/ 10/ 15 1011.5R
44100 DUCK FRF   1100      45                N/A     4/11   2/11
44056 DUCK FRF   1200      43                N/A     3/11   2/11
OREGON INLET NC  1200   39 47  280/  9/ 12 1012.5R
HATTERAS NC      1200   44 53  300/ 17/ 19 1013.1R
DIAMOND SHLS NC  1200   48 70  310/ 19/ 25 1012.2R   6/ 5   3/11



USA.gov is the U.S. government's official web portal to all federal, state and local government web resources and services.